• In Latvia
  • List of Countries
  • For 7 days
  • Water Temperature
  • Satellite Maps
  • Weather Map
  • Weather Widgets
  • user-avatar
    Login

    Hourly Weather Lagmon

    Today, 21 April, Saturday

    Time Temperature Precipitation Wind Pressure Humidity
    00:00 +15°C° 0 mm 2 mps 726 mmHg 46%
    01:00 +14°C° 0 mm 2 mps 726 mmHg 47%
    02:00 +13°C° 0 mm 3 mps 726 mmHg 47%
    03:00 +13°C° 0 mm 3 mps 726 mmHg 48%
    04:00 +12°C° 0 mm 3 mps 725 mmHg 49%
    05:00 +14°C° 0 mm 3 mps 726 mmHg 47%
    06:00 +16°C° 0 mm 3 mps 726 mmHg 45%
    07:00 +17°C° 0 mm 3 mps 726 mmHg 43%
    08:00 +19°C° 0 mm 4 mps 726 mmHg 36%
    09:00 +21°C° 0 mm 4 mps 726 mmHg 29%
    10:00 +25°C° 0 mm 5 mps 726 mmHg 22%
    11:00 +26°C° 0 mm 5 mps 726 mmHg 20%
    12:00 +27°C° 0 mm 5 mps 726 mmHg 17%
    13:00 +28°C° 0 mm 6 mps 726 mmHg 15%
    14:00 +28°C° 0 mm 5 mps 725 mmHg 16%
    15:00 +28°C° 0 mm 5 mps 725 mmHg 16%
    16:00 +28°C° 0 mm 5 mps 725 mmHg 16%
    17:00 +26°C° 0 mm 5 mps 725 mmHg 19%
    18:00 +25°C° 0 mm 4 mps 725 mmHg 22%
    19:00 +22°C° 0 mm 4 mps 725 mmHg 26%
    20:00 +21°C° 0 mm 4 mps 725 mmHg 28%
    21:00 +20°C° 0 mm 5 mps 725 mmHg 30%
    22:00 +20°C° 0 mm 5 mps 725 mmHg 32%
    23:00 +19°C° 0 mm 5 mps 724 mmHg 31%

    Tomorrow, 22 April, Sunday

    Time Temperature Precipitation Wind Pressure Humidity
    00:00 +19°C° 0 mm 5 mps 724 mmHg 31%
    01:00 +19°C° 0 mm 6 mps 724 mmHg 31%
    02:00 +19°C° 0 mm 6 mps 724 mmHg 29%
    03:00 +19°C° 0 mm 6 mps 724 mmHg 28%
    04:00 +19°C° 0 mm 6 mps 724 mmHg 27%
    05:00 +20°C° 0 mm 6 mps 724 mmHg 26%
    06:00 +21°C° 0 mm 6 mps 724 mmHg 25%
    07:00 +23°C° 0 mm 6 mps 725 mmHg 24%
    08:00 +24°C° 0 mm 6 mps 725 mmHg 23%
    09:00 +27°C° 0 mm 6 mps 725 mmHg 21%
    10:00 +29°C° 0 mm 5 mps 726 mmHg 20%
    11:00 +30°C° 0 mm 6 mps 725 mmHg 18%
    12:00 +32°C° 0 mm 7 mps 725 mmHg 16%
    13:00 +34°C° 0 mm 7 mps 725 mmHg 14%
    14:00 +33°C° 0 mm 7 mps 725 mmHg 15%
    15:00 +33°C° 0 mm 6 mps 725 mmHg 16%
    16:00 +32°C° 0 mm 5 mps 725 mmHg 18%
    17:00 +30°C° 0 mm 4 mps 725 mmHg 20%
    18:00 +28°C° 0 mm 3 mps 725 mmHg 22%
    19:00 +27°C° 0 mm 2 mps 726 mmHg 24%
    20:00 +26°C° 0 mm 2 mps 726 mmHg 25%
    21:00 +25°C° 0 mm 2 mps 726 mmHg 27%
    22:00 +24°C° 0 mm 2 mps 726 mmHg 28%
    23:00 +24°C° 0 mm 2 mps 726 mmHg 28%

    Day after tomorrow, 23 April, Monday

    Time Temperature Precipitation Wind Pressure Humidity
    00:00 +24°C° 0 mm 2 mps 726 mmHg 29%
    01:00 +24°C° 0 mm 2 mps 726 mmHg 29%
    02:00 +23°C° 0 mm 2 mps 726 mmHg 30%
    03:00 +23°C° 0 mm 2 mps 726 mmHg 31%
    04:00 +21°C° 0 mm 2 mps 726 mmHg 32%
    05:00 +23°C° 0 mm 2 mps 727 mmHg 32%
    06:00 +24°C° 0 mm 2 mps 727 mmHg 31%
    07:00 +25°C° 0 mm 3 mps 727 mmHg 31%
    08:00 +27°C° 0 mm 3 mps 727 mmHg 27%
    09:00 +29°C° 0 mm 3 mps 727 mmHg 23%
    10:00 +31°C° 0 mm 3 mps 727 mmHg 19%
    11:00 +33°C° 0 mm 3 mps 727 mmHg 17%
    12:00 +34°C° 0 mm 3 mps 726 mmHg 15%
    13:00 +36°C° 0 mm 3 mps 726 mmHg 14%
    14:00 +36°C° 0 mm 3 mps 725 mmHg 13%
    15:00 +36°C° 0 mm 3 mps 725 mmHg 13%
    16:00 +36°C° 0 mm 3 mps 724 mmHg 13%
    17:00 +34°C° 0 mm 4 mps 724 mmHg 16%
    18:00 +32°C° 0 mm 4 mps 724 mmHg 19%
    19:00 +29°C° 0 mm 5 mps 723 mmHg 22%
    20:00 +29°C° 0 mm 5 mps 723 mmHg 22%
    21:00 +28°C° 0 mm 6 mps 723 mmHg 22%
    22:00 +27°C° 0 mm 7 mps 723 mmHg 22%
    23:00 +28°C° 0 mm 7 mps 722 mmHg 21%

    24 April, Tuesday

    Time Temperature Precipitation Wind Pressure Humidity
    00:00 +28°C° 0 mm 8 mps 722 mmHg 19%
    01:00 +29°C° 0 mm 9 mps 721 mmHg 18%
    02:00 +29°C° 0 mm 8 mps 721 mmHg 18%
    03:00 +28°C° 0 mm 8 mps 721 mmHg 17%
    04:00 +28°C° 0 mm 8 mps 721 mmHg 17%
    05:00 +28°C° 0 mm 7 mps 722 mmHg 19%
    06:00 +28°C° 0 mm 7 mps 722 mmHg 21%
    07:00 +28°C° 0 mm 6 mps 722 mmHg 23%
    08:00 +29°C° 0.1 mm 6 mps 723 mmHg 24%
    09:00 +30°C° 0.1 mm 6 mps 723 mmHg 24%
    10:00 +33°C° 0.1 mm 6 mps 723 mmHg 25%
    11:00 +33°C° 0.2 mm 6 mps 723 mmHg 25%
    12:00 +33°C° 0.2 mm 6 mps 723 mmHg 25%
    13:00 +33°C° 0.2 mm 7 mps 723 mmHg 25%
    14:00 +30°C° 0.1 mm 7 mps 724 mmHg 32%
    15:00 +29°C° 0.1 mm 6 mps 724 mmHg 38%
    16:00 +27°C° 0.1 mm 6 mps 725 mmHg 45%
    17:00 +24°C° 0.4 mm 6 mps 726 mmHg 51%
    18:00 +23°C° 0.4 mm 6 mps 727 mmHg 56%
    19:00 +21°C° 0.4 mm 6 mps 727 mmHg 62%
    20:00 +20°C° 0.2 mm 5 mps 728 mmHg 63%
    21:00 +20°C° 0.2 mm 5 mps 729 mmHg 65%
    22:00 +19°C° 0.2 mm 4 mps 730 mmHg 66%
    23:00 +19°C° 0 mm 4 mps 730 mmHg 67%

    25 April, Wednesday

    Time Temperature Precipitation Wind Pressure Humidity
    00:00 +18°C° 0 mm 4 mps 730 mmHg 67%
    01:00 +17°C° 0 mm 4 mps 730 mmHg 68%
    02:00 +17°C° 0 mm 3 mps 730 mmHg 69%
    03:00 +16°C° 0 mm 3 mps 731 mmHg 69%
    04:00 +16°C° 0 mm 3 mps 731 mmHg 70%
    05:00 +16°C° 0 mm 3 mps 731 mmHg 68%
    06:00 +16°C° 0 mm 3 mps 731 mmHg 65%
    07:00 +17°C° 0 mm 3 mps 732 mmHg 62%
    08:00 +18°C° 0 mm 3 mps 732 mmHg 56%
    09:00 +19°C° 0 mm 3 mps 732 mmHg 49%
    10:00 +21°C° 0 mm 4 mps 732 mmHg 43%
    11:00 +22°C° 0 mm 4 mps 732 mmHg 38%
    12:00 +22°C° 0 mm 4 mps 732 mmHg 34%
    13:00 +23°C° 0 mm 5 mps 732 mmHg 30%
    14:00 +23°C° 0 mm 5 mps 732 mmHg 28%
    15:00 +23°C° 0 mm 5 mps 732 mmHg 26%
    16:00 +23°C° 0 mm 5 mps 732 mmHg 25%
    17:00 +22°C° 0 mm 4 mps 732 mmHg 27%
    18:00 +21°C° 0 mm 4 mps 732 mmHg 29%
    19:00 +20°C° 0 mm 3 mps 732 mmHg 31%
    20:00 +19°C° 0 mm 3 mps 733 mmHg 34%
    21:00 +18°C° 0 mm 3 mps 733 mmHg 36%
    22:00 +18°C° 0 mm 3 mps 733 mmHg 39%
    23:00 +17°C° 0 mm 3 mps 732 mmHg 44%

    26 April, Thursday

    Time Temperature Precipitation Wind Pressure Humidity
    00:00 +17°C° 0 mm 3 mps 732 mmHg 49%
    01:00 +16°C° 0 mm 3 mps 732 mmHg 55%
    02:00 +16°C° 0 mm 3 mps 732 mmHg 57%
    03:00 +14°C° 0 mm 3 mps 732 mmHg 60%
    04:00 +14°C° 0 mm 3 mps 732 mmHg 63%
    05:00 +16°C° 0 mm 3 mps 732 mmHg 58%
    06:00 +17°C° 0 mm 3 mps 732 mmHg 54%
    07:00 +18°C° 0 mm 3 mps 732 mmHg 50%
    08:00 +20°C° 0 mm 3 mps 732 mmHg 44%
    09:00 +21°C° 0 mm 3 mps 732 mmHg 38%
    10:00 +24°C° 0 mm 3 mps 732 mmHg 32%
    11:00 +25°C° 0 mm 3 mps 731 mmHg 29%
    12:00 +26°C° 0 mm 3 mps 731 mmHg 27%
    13:00 +27°C° 0 mm 3 mps 731 mmHg 25%
    14:00 +27°C° 0 mm 3 mps 730 mmHg 24%
    15:00 +27°C° 0 mm 3 mps 730 mmHg 23%
    16:00 +27°C° 0 mm 3 mps 730 mmHg 23%
    17:00 +26°C° 0 mm 3 mps 730 mmHg 26%
    18:00 +25°C° 0 mm 3 mps 730 mmHg 29%
    19:00 +22°C° 0 mm 3 mps 730 mmHg 32%
    20:00 +22°C° 0 mm 3 mps 730 mmHg 35%
    21:00 +21°C° 0 mm 3 mps 730 mmHg 39%
    22:00 +20°C° 0 mm 3 mps 730 mmHg 42%
    23:00 +19°C° 0 mm 3 mps 730 mmHg 44%
    Show more